Weather in Mogsokhon

Russia / Republic of Buryatia     51°53′08″N   110°19′29″E
temp.,
°C
wind,
m/s
gust,
m/s
humid.,
%
clouds,
%
prec.,
mm/h
press.,
hPa
HPBL,
m
25 june, sat
sat2523:00+14ne22535 0.0 100119
02:00+12ne117386 0.0 100211
05:00+12ne118095 0.0 100414
08:00+18ssw015929 0.0 1003415
11:00+24wsw223836 0.0 10022072
14:00+26sw242940 0.0 10002587
17:00+27nw542485 0.0 9992903
20:00+22nne224286 0.0 100122
26 june, sun
sun2623:00+16nnw225588 0.0 100320
02:00+14wnw117257 0.0 100511
05:00+12wsw118079 0.0 100613
08:00+20w365212 0.0 1006668
11:00+24w563484 0.0 10052177
14:00+27w562696 0.0 10033122
17:00+27wnw662410 0.0 10032981
20:00+22nw593894 0.0 1004536
27 june, mon
mon2723:00+15wnw116099 0.0 100611
02:00+13w11695 0.0 100711
05:00+12wsw117278 0.0 100711
08:00+20w23475 0.0 1006455
11:00+26nw343331 0.0 10041712
14:00+30w352633 0.0 10012934
17:00+31nnw452330 0.0 10003192
20:00+26n49345 0.0 1001346
28 june, tue
tue2823:00+18n11550 0.0 100311
02:00+16n11631 0.0 100311
05:00+16ene11681 0.0 100311
08:00+23sse10445 0.0 1003376
11:00+30wsw13280 0.0 10011643
14:00+33wnw12204 0.0 9993407
17:00+33ese231827 0.0 9983454
20:00+25nw383990 0.0 1000191
29 june, wed
wed2923:00+19w01505 0.0 100111
02:00+19ene11515 0.0 100111
05:00+17ese11582 0.0 100211
08:00+25sse11381 0.0 1002360
11:00+31ssw21270 0.0 10011229
14:00+34wsw221922 0.0 9983491
17:00+34s431843 0.0 9972781
20:00+28ssw223358 0.0 99811